Location: Pradons
(44.4746°N, 4.3578°E)
Time: 00:51:58
(UTC+00:00)

Cosmos 1892 - Pass Details

Date: 09 April 2020
Orbit: 503 x 526 km, 82.5° (Epoch: 02 June)

Event Time Altitude Azimuth Distance (km) Brightness Sun altitude
Rises 19:56:25 0° 1° (N) 2,673 6.7 -16.8°
Reaches altitude 10° 19:58:47 10° 13° (NNE) 1,779 5.6 -17.2°
Enters shadow 20:02:06 28° 71° (ENE) 1,007 3.8 -17.7°
